W6NJB Weather Reports


Display with metric or nautical units.
time (UTC)temp
F
wind
direction
speed
MPH
gust
MPH
rain 1hr
in
rain 24hr
in
rain mn
in
humidity
%
barometer
mb
20260505025006 68 227 0.0 3.0 0.00 0.00 0.00 64 1008.1
20260505024530 68 246 0.0 3.0 0.00 0.00 0.00 64 1008.1
20260505024003 68 230 0.0 4.0 0.00 0.00 0.00 64 1008.1
20260505023506 68 84 1.0 4.0 0.00 0.00 0.00 64 1008.0
20260505023015 68 142 0.0 4.0 0.00 0.00 0.00 64 1007.9
20260505022508 68 142 0.0 4.0 0.00 0.00 0.00 63 1007.9
20260505022009 68 142 0.0 2.0 0.00 0.00 0.00 63 1007.9
20260505021536 68 183 0.0 3.0 0.00 0.00 0.00 62 1007.8
20260505021011 69 67 1.0 3.0 0.00 0.00 0.00 62 1007.7
20260505020510 69 179 0.0 2.0 0.00 0.00 0.00 62 1007.7
20260505020020 69 165 0.0 4.0 0.00 0.00 0.00 61 1007.7
20260505015512 69 223 0.0 4.0 0.00 0.00 0.00 61 1007.6
20260505015009 69 202 0.0 3.0 0.00 0.00 0.00 61 1007.6
20260505014525 69 133 0.0 5.0 0.00 0.00 0.00 61 1007.5
20260505014006 70 175 1.0 5.0 0.00 0.00 0.00 60 1007.4
20260505013508 70 142 1.0 3.0 0.00 0.00 0.00 60 1007.4
20260505013014 70 218 0.0 3.0 0.00 0.00 0.00 60 1007.4
20260505012504 70 251 1.0 4.0 0.00 0.00 0.00 60 1007.4
20260505012011 70 167 1.0 5.0 0.00 0.00 0.00 60 1007.3
20260505011519 70 226 0.0 5.0 0.00 0.00 0.00 59 1007.2
20260505011008 71 148 0.0 5.0 0.00 0.00 0.00 59 1007.1
20260505010507 71 180 1.0 5.0 0.00 0.00 0.00 58 1007.1
20260505010023 71 153 0.0 7.0 0.00 0.00 0.00 58 1007.0
20260505005510 72 198 1.0 7.0 0.00 0.00 0.00 57 1007.0
20260505005011 72 176 0.0 9.0 0.00 0.00 0.00 58 1007.1
20260505004535 72 153 1.0 9.0 0.00 0.00 0.00 57 1007.0
20260505004009 72 152 0.0 4.0 0.00 0.00 0.00 57 1007.0
20260505003509 72 263 0.0 4.0 0.00 0.00 0.00 56 1007.0
20260505003024 73 134 0.0 4.0 0.00 0.00 0.00 56 1007.1
20260505002506 73 244 0.0 4.0 0.00 0.00 0.00 55 1007.1
20260505002008 73 284 1.0 10.0 0.00 0.00 0.00 56 1007.0
20260505001516 74 150 2.0 10.0 0.00 0.00 0.00 54 1007.0
20260505001008 74 138 1.0 3.0 0.00 0.00 0.00 54 1007.0
20260505000507 74 200 1.0 7.0 0.00 0.00 0.00 54 1007.1
20260505000021 75 134 1.0 7.0 0.00 0.00 0.00 53 1007.0
20260504235510 75 129 2.0 7.0 0.00 0.00 0.00 52 1007.2
20260504235015 75 119 1.0 8.0 0.00 0.00 0.00 52 1007.1
20260504234525 76 304 3.0 8.0 0.00 0.00 0.00 51 1007.2
20260504234012 76 275 2.0 9.0 0.00 0.00 0.00 51 1007.2
20260504233510 76 289 3.0 13.0 0.00 0.00 0.00 51 1007.3
20260504233024 76 200 2.0 14.0 0.00 0.00 0.00 51 1007.4
20260504232512 77 229 2.0 14.0 0.00 0.00 0.00 50 1007.4
20260504232007 77 238 2.0 12.0 0.00 0.00 0.00 50 1007.4
20260504231514 77 294 2.0 16.0 0.00 0.00 0.00 49 1007.5
20260504231007 77 117 4.0 16.0 0.00 0.00 0.00 48 1007.6
20260504230507 77 105 4.0 15.0 0.00 0.00 0.00 47 1007.6
20260504230018 78 125 3.0 10.0 0.00 0.00 0.00 48 1007.5
20260504225512 78 197 4.0 10.0 0.00 0.00 0.00 47 1007.6
20260504225002 78 89 3.0 10.0 0.00 0.00 0.00 46 1007.5
20260504224507 78 334 3.0 18.0 0.00 0.00 0.00 47 1007.5
20260504224002 78 138 5.0 18.0 0.00 0.00 0.00 46 1007.5
20260504223503 78 254 4.0 10.0 0.00 0.00 0.00 45 1007.4
20260504223008 78 234 3.0 18.0 0.00 0.00 0.00 46 1007.5
20260504222504 79 198 5.0 18.0 0.00 0.00 0.00 46 1007.6
20260504222009 79 146 5.0 13.0 0.00 0.00 0.00 45 1007.4
20260504221510 79 256 5.0 12.0 0.00 0.00 0.00 46 1007.6
20260504221006 79 246 1.0 12.0 0.00 0.00 0.00 46 1007.6
20260504220510 79 227 5.0 12.0 0.00 0.00 0.00 45 1007.6
20260504220022 79 285 4.0 12.0 0.00 0.00 0.00 46 1007.6
20260504215508 79 165 4.0 12.0 0.00 0.00 0.00 47 1007.7
20260504215010 79 241 3.0 15.0 0.00 0.00 0.00 47 1007.7
20260504214520 79 96 6.0 15.0 0.00 0.00 0.00 46 1007.7
20260504214009 79 148 2.0 12.0 0.00 0.00 0.00 45 1007.7
20260504213502 79 129 5.0 12.0 0.00 0.00 0.00 45 1007.7
20260504213004 79 213 4.0 12.0 0.00 0.00 0.00 45 1007.8
20260504212506 79 145 3.0 11.0 0.00 0.00 0.00 45 1007.7
20260504212007 79 275 0.0 11.0 0.00 0.00 0.00 46 1007.8
20260504211510 79 101 4.0 11.0 0.00 0.00 0.00 47 1007.8
20260504211003 79 217 3.0 11.0 0.00 0.00 0.00 45 1007.9
20260504210505 79 261 4.0 14.0 0.00 0.00 0.00 45 1007.9
20260504210015 79 220 3.0 14.0 0.00 0.00 0.00 45 1008.0
20260504205508 79 266 3.0 14.0 0.00 0.00 0.00 44 1008.1
20260504205009 80 242 3.0 10.0 0.00 0.00 0.00 45 1008.2
20260504204519 80 259 3.0 11.0 0.00 0.00 0.00 47 1008.3
20260504204008 79 132 3.0 15.0 0.00 0.00 0.00 46 1008.4
20260504203510 79 207 5.0 15.0 0.00 0.00 0.00 45 1008.5
20260504203026 79 257 5.0 15.0 0.00 0.00 0.00 47 1008.6
20260504202504 79 86 3.0 16.0 0.00 0.00 0.00 47 1008.7
20260504202003 79 135 6.0 16.0 0.00 0.00 0.00 46 1008.7
20260504201508 79 190 4.0 22.0 0.00 0.00 0.00 45 1008.8
20260504201008 79 240 4.0 22.0 0.00 0.00 0.00 46 1008.8
20260504200507 79 250 6.0 18.0 0.00 0.00 0.00 46 1009.0
20260504200017 79 196 2.0 13.0 0.00 0.00 0.00 46 1009.1
20260504195506 79 122 4.0 14.0 0.00 0.00 0.00 46 1009.1
20260504195007 79 121 4.0 14.0 0.00 0.00 0.00 48 1009.2
20260504194519 79 213 3.0 10.0 0.00 0.00 0.00 46 1009.2
20260504194008 79 78 2.0 8.0 0.00 0.00 0.00 47 1009.4
20260504193509 79 136 3.0 9.0 0.00 0.00 0.00 49 1009.3
20260504193022 79 187 2.0 9.0 0.00 0.00 0.00 47 1009.4
20260504192511 79 240 4.0 12.0 0.00 0.00 0.00 47 1009.5
20260504192010 78 119 4.0 15.0 0.00 0.00 0.00 47 1009.5
20260504191524 78 244 4.0 15.0 0.00 0.00 0.00 48 1009.3
20260504191003 78 80 4.0 14.0 0.00 0.00 0.00 47 1009.5
20260504190504 78 183 4.0 16.0 0.00 0.00 0.00 46 1009.5
20260504190012 78 284 5.0 16.0 0.00 0.00 0.00 48 1009.5
20260504185506 78 298 4.0 13.0 0.00 0.00 0.00 47 1009.5
20260504185006 78 198 4.0 17.0 0.00 0.00 0.00 48 1009.5
20260504184522 77 74 4.0 17.0 0.00 0.00 0.00 47 1009.6
20260504184007 77 128 4.0 12.0 0.00 0.00 0.00 49 1009.6
20260504183509 77 220 4.0 12.0 0.00 0.00 0.00 47 1009.6
20260504183021 77 201 5.0 12.0 0.00 0.00 0.00 48 1009.6
20260504182506 77 140 5.0 12.0 0.00 0.00 0.00 46 1009.7
20260504182011 77 197 4.0 12.0 0.00 0.00 0.00 47 1009.7
20260504181523 77 133 4.0 12.0 0.00 0.00 0.00 46 1009.8
20260504181010 77 51 4.0 12.0 0.00 0.00 0.00 48 1009.8
20260504180510 78 205 4.0 10.0 0.00 0.00 0.00 46 1009.8
20260504180006 77 208 3.0 10.0 0.00 0.00 0.00 49 1009.9
20260504175504 77 171 2.0 9.0 0.00 0.00 0.00 48 1009.9
20260504175006 77 80 3.0 11.0 0.00 0.00 0.00 47 1009.9
20260504174514 77 160 3.0 13.0 0.00 0.00 0.00 48 1010.0
20260504174009 77 248 5.0 13.0 0.00 0.00 0.00 48 1010.1
20260504173511 77 334 4.0 10.0 0.00 0.00 0.00 48 1010.1
20260504173018 77 143 4.0 13.0 0.00 0.00 0.00 49 1010.2
20260504172510 76 150 4.0 16.0 0.00 0.00 0.00 48 1010.2
20260504172011 76 153 4.0 16.0 0.00 0.00 0.00 49 1010.3
20260504171524 76 218 3.0 12.0 0.00 0.00 0.00 48 1010.4
20260504171016 75 283 4.0 15.0 0.00 0.00 0.00 49 1010.4
20260504170508 75 97 2.0 15.0 0.00 0.00 0.00 48 1010.5
20260504151006 72 81 3.0 13.0 0.00 0.00 0.00 53 1011.6
20260504150510 71 229 1.0 16.0 0.00 0.00 0.00 54 1011.6
20260504141007 69 168 3.0 9.0 0.00 0.00 0.00 57 1012.0
20260504140507 69 158 3.0 12.0 0.00 0.00 0.00 56 1011.9
20260504130507 64 114 0.0 7.0 0.00 0.00 0.00 67 1011.7
20260504110506 55 132 0.0 0.0 0.00 0.00 0.00 84 1011.3
20260504100503 57 132 0.0 0.0 0.00 0.00 0.00 80 1011.4
20260504081540 58 134 0.0 3.0 0.00 0.00 0.00 79 1011.7
20260504081011 58 137 0.0 3.0 0.00 0.00 0.00 79 1011.7
20260504080510 58 120 0.0 2.0 0.00 0.00 0.00 79 1011.7
20260504050509 60 82 0.0 2.0 0.00 0.00 0.00 74 1013.0
20260504045509 60 234 0.0 2.0 0.00 0.00 0.00 74 1013.0
20260504045010 60 234 0.0 2.0 0.00 0.00 0.00 73 1013.1
20260504044508 60 234 0.0 2.0 0.00 0.00 0.00 73 1013.1
20260504044003 60 234 0.0 2.0 0.00 0.00 0.00 73 1013.1
20260504043504 60 234 0.0 2.0 0.00 0.00 0.00 73 1013.2
20260504043022 60 234 0.0 2.0 0.00 0.00 0.00 73 1013.3
20260504042505 60 123 0.0 0.0 0.00 0.00 0.00 73 1013.3
20260504042009 60 123 0.0 0.0 0.00 0.00 0.00 73 1013.3
20260504041519 60 123 0.0 0.0 0.00 0.00 0.00 73 1013.3
20260504041008 60 123 0.0 0.0 0.00 0.00 0.00 73 1013.4
20260504040513 60 123 0.0 0.0 0.00 0.00 0.00 74 1013.5
20260504040025 60 123 0.0 0.0 0.00 0.00 0.00 74 1013.4
20260504035509 60 120 0.0 0.0 0.00 0.00 0.00 74 1013.4
20260504035006 60 119 0.0 0.0 0.00 0.00 0.00 74 1013.5
20260504034524 60 119 0.0 0.0 0.00 0.00 0.00 73 1013.4
20260504034010 61 119 0.0 0.0 0.00 0.00 0.00 71 1013.5
20260504033510 61 119 0.0 0.0 0.00 0.00 0.00 71 1013.6
20260504033012 62 119 0.0 0.0 0.00 0.00 0.00 71 1013.6
20260504032504 62 119 0.0 0.0 0.00 0.00 0.00 70 1013.7
20260504032010 62 119 0.0 0.0 0.00 0.00 0.00 68 1013.7
20260504031516 63 119 0.0 0.0 0.00 0.00 0.00 67 1013.7
20260504031009 63 119 0.0 1.0 0.00 0.00 0.00 67 1013.7
20260504030508 63 143 0.0 1.0 0.00 0.00 0.00 66 1013.7
20260504030026 63 143 0.0 1.0 0.00 0.00 0.00 66 1013.7
20260504025509 64 143 0.0 1.0 0.00 0.00 0.00 66 1013.7